カタログに戻る

ARIANE 44L+ DEB

LostGTO
NORAD 34179·DEBRIS·🇫🇷 France

打ち上げ Apr 15, 1992 から Guiana Space Centre

Loading…

TLE

古いSource: Space-Track

元期: Nov 11, 2025, 17:01 UTC

1 34179U 92021V   25315.70914163 -.00000209  00000-0  00000-0 0  9997
2 34179   3.6604  77.6683 7010181 324.2815  10.0478  2.24181973104467

AllMySatでARIANE 44L+ DEBをリアルタイム追跡

Download on the App Store